Regional Weather Roundup
Issued by NWS Kansas City/Pleasant Hill, MO

Home | Current Version | Previous Version | Graphics & Text | Print | Product List | Glossary Off
Versions: 1 2 3 4 5 6 7 8 9 10 11 12 13 14 15 16 17 18 19 20 21 22 23 24 25 26 27 28 29 30 31 32 33 34 35 36 37 38 39 40 41 42 43 44 45 46 47 48 49 50

000
ASUS43 KEAX 292010
RWREAX

WEATHER ROUNDUP FOR EASTERN KANSAS AND NORTHWEST MISSOURI
NATIONAL WEATHER SERVICE KANSAS CITY/PLEASANT HILL MO
300 PM CDT WED JUL 29 2015

KSZ040-057-103>105-MOZ028-029-037-043-292100-
...KANSAS CITY METROPOLITAN AREA...

CITY           SKY/WX    TMP DP  RH WIND       PRES   REMARKS
K.C. INTL      PTSUNNY   83  66  56 NE9       30.15F
K.C. DOWNTOWN  MOSUNNY   85  67  54 NE8       30.13F
LEES SUMMIT    SUNNY     85  62  46 NE13      30.15S
OLATHE - IXD   PTSUNNY   84  71  65 NE10      30.15S
OLATHE - OJC   MOSUNNY   83  66  56 NE10      30.14S
LAWRENCE       PTSUNNY   84  68  58 NE12      30.13F

$$

MOZ001>008-011>017-020>025-030>033-038>040-044>046-053-054-292100-
...NORTHERN AND CENTRAL MISSOURI...

CITY           SKY/WX    TMP DP  RH WIND       PRES   REMARKS
ST. JOSEPH     PTSUNNY   83  65  54 NE8       30.14F
MOSBY          CLEAR     84  61  45 NE6       30.13F
WARRENSBURG    SUNNY     82  63  51 N10       30.13S
WHITEMAN AFB   MOSUNNY   87  66  48 N10       30.12F
CLINTON          N/A     88  70  55 N13       30.12S HX  92
SEDALIA        SUNNY     87  66  49 VRB7      30.13F
WARSAW         NOT AVBL
CHILLICOTHE      N/A     85  62  46 N7        30.15S
KIRKSVILLE     MOSUNNY   83  62  49 N9        30.15S

$$

MOZ041-047>049-056>058-063>065-088>090-097-292100-
...EASTERN AND SOUTHERN MISSOURI...

CITY           SKY/WX    TMP DP  RH WIND       PRES   REMARKS
ST. LOUIS INTL MOSUNNY   89  72  56 NW12      30.06R HX  96
SPIRIT OF STL  MOSUNNY   88  73  61 NW14      30.05S HX  95
COLUMBIA       SUNNY     86  62  44 N9        30.12R
JEFFERSON CITY SUNNY     87  65  47 N8        30.09R
ROLLA          MOSUNNY   84  69  60 N7        30.10R
OSAGE BEACH    MOSUNNY   84  68  58 N6        30.11S
SPRINGFIELD    MOSUNNY   94  70  45 N9        30.08S HX 100
BRANSON        MOSUNNY   91  73  55 CALM      30.10S HX 100
JOPLIN         MOSUNNY   96  71  44 E6        30.06F HX 103
WEST PLAINS    SUNNY     93  73  52 NW5       30.08F HX 102

$$

IAZ060-094-KSZ022-034>040-054-083-096-NEZ052-066-093-292100-
...KANSAS...SOUTHEAST NEBRASKA AND IOWA...

CITY           SKY/WX    TMP DP  RH WIND       PRES   REMARKS
TOPEKA         PTSUNNY   82  70  66 NE9       30.13F
MANHATTAN      CLOUDY    80  71  74 NE7       30.15R
EMPORIA        PTSUNNY   80  69  69 NE10      30.14S
CHANUTE        SUNNY     89  72  56 NE14      30.10S HX  96
WICHITA        CLOUDY    82  71  69 NE12      30.11S
OMAHA          MOSUNNY   85  54  34 NW8       30.15F
LINCOLN        MOSUNNY   84  50  30 N9        30.18S
FALLS CITY     PTSUNNY   82  61  48 NE7       30.14F
LAMONI           N/A    N/A N/A N/A MISG      30.16S
DES MOINES     MOSUNNY   85  53  33 NW12G22   30.12R

$$



USA.gov is the U.S. government's official web portal to all federal, state and local government web resources and services.